Location: Hains Lake
(37.8540°N, 99.8578°W)
Time: 01:05:50
(UTC+00:00)

Transit 2A - Pass Details

Date: 25 April 2021
Orbit: 602 x 957 km, 66.7° (Epoch: 14 May)

Event Time Altitude Azimuth Distance (km) Brightness Sun altitude
Rises 22:07:40 0° 322° (NW) 2,909 9.3 37.6°
Reaches altitude 10° 22:10:00 10° 314° (NW) 2,031 8.7 37.1°
Maximum altitude 22:14:11 36° 248° (WSW) 1,057 9.4 36.3°
Drops below altitude 10° 22:18:40 10° 182° (S) 2,187 8.6 35.4°
Sets 22:21:16 0° 174° (S) 3,165 9.2 34.9°
